| time (UTC) | temp F | wind direction | speed MPH | gust MPH | rain 1hr in | rain 24hr in | rain mn in | humidity % | barometer mb |
| 20260903105051 | 57 | 0 | 0.0 | 0.0 | 0.02 | 0.13 | 0.12 | 95 | 1015.7 |
| 20260903104614 | 57 | 0 | 0.0 | 0.0 | 0.02 | 0.12 | 0.11 | 95 | 1015.7 |
| 20260903104050 | 57 | 0 | 0.0 | 0.0 | 0.02 | 0.12 | 0.11 | 95 | 1015.8 |
| 20260903103553 | 57 | 0 | 0.0 | 0.0 | 0.02 | 0.12 | 0.11 | 95 | 1015.9 |
| 20260903103102 | 57 | 0 | 0.0 | 0.0 | 0.02 | 0.12 | 0.11 | 95 | 1015.8 |
| 20260903102552 | 57 | 0 | 0.0 | 0.0 | 0.02 | 0.12 | 0.11 | 95 | 1015.5 |
| 20260903102051 | 57 | 0 | 0.0 | 0.0 | 0.03 | 0.12 | 0.11 | 95 | 1015.6 |
| 20260903101605 | 57 | 0 | 0.0 | 1.0 | 0.03 | 0.12 | 0.11 | 95 | 1015.6 |
| 20260903101055 | 57 | 0 | 0.0 | 2.0 | 0.02 | 0.11 | 0.10 | 95 | 1015.7 |
| 20260903100551 | 57 | 0 | 0.0 | 2.0 | 0.02 | 0.11 | 0.10 | 95 | 1015.6 |
| 20260903100059 | 57 | 0 | 0.0 | 2.0 | 0.02 | 0.11 | 0.10 | 95 | 1015.7 |
| 20260903095551 | 57 | 0 | 0.0 | 0.0 | 0.02 | 0.12 | 0.10 | 95 | 1015.7 |
| 20260903095051 | 57 | 0 | 0.0 | 0.0 | 0.02 | 0.12 | 0.10 | 95 | 1015.7 |
| 20260903094620 | 57 | 0 | 0.0 | 4.0 | 0.01 | 0.11 | 0.09 | 95 | 1015.5 |
| 20260903094053 | 57 | 0 | 0.0 | 4.0 | 0.01 | 0.11 | 0.09 | 95 | 1015.5 |
| 20260903093552 | 58 | 0 | 0.0 | 2.0 | 0.02 | 0.11 | 0.09 | 95 | 1015.6 |
| 20260903093100 | 58 | 0 | 0.0 | 0.0 | 0.02 | 0.11 | 0.09 | 95 | 1015.6 |
| 20260903092554 | 58 | 0 | 0.0 | 0.0 | 0.02 | 0.11 | 0.09 | 94 | 1015.9 |
| 20260903092052 | 58 | 0 | 0.0 | 0.0 | 0.01 | 0.10 | 0.08 | 94 | 1015.8 |
| 20260903091611 | 58 | 0 | 0.0 | 0.0 | 0.01 | 0.10 | 0.08 | 94 | 1015.9 |
| 20260903091052 | 58 | 0 | 0.0 | 0.0 | 0.01 | 0.10 | 0.08 | 94 | 1016.0 |
| 20260903090552 | 58 | 0 | 0.0 | 0.0 | 0.02 | 0.10 | 0.08 | 94 | 1016.0 |
| 20260903090058 | 58 | 0 | 0.0 | 0.0 | 0.02 | 0.10 | 0.08 | 94 | 1015.9 |
| 20260903085551 | 58 | 0 | 0.0 | 0.0 | 0.02 | 0.11 | 0.08 | 94 | 1016.1 |
| 20260903085052 | 58 | 0 | 0.0 | 3.0 | 0.02 | 0.11 | 0.08 | 94 | 1016.0 |
| 20260903084604 | 58 | 0 | 0.0 | 3.0 | 0.03 | 0.11 | 0.08 | 94 | 1016.0 |
| 20260903084054 | 58 | 0 | 0.0 | 3.0 | 0.03 | 0.11 | 0.08 | 94 | 1016.0 |
| 20260903083553 | 58 | 0 | 0.0 | 2.0 | 0.02 | 0.10 | 0.07 | 94 | 1016.1 |
| 20260903083102 | 58 | 0 | 0.0 | 1.0 | 0.02 | 0.10 | 0.07 | 94 | 1016.3 |
| 20260903082551 | 58 | 0 | 0.0 | 1.0 | 0.02 | 0.10 | 0.07 | 94 | 1016.2 |
| 20260903082051 | 58 | 0 | 0.0 | 5.0 | 0.02 | 0.10 | 0.07 | 94 | 1016.3 |
| 20260903081555 | 59 | 0 | 0.0 | 5.0 | 0.02 | 0.10 | 0.07 | 94 | 1016.3 |
| 20260903081047 | 59 | 0 | 0.0 | 5.0 | 0.02 | 0.10 | 0.07 | 93 | 1016.4 |
| 20260903080551 | 59 | 0 | 0.0 | 2.0 | 0.02 | 0.09 | 0.06 | 94 | 1016.5 |
| 20260903075552 | 59 | 0 | 0.0 | 1.0 | 0.05 | 0.09 | 0.06 | 94 | 1016.6 |
| 20260903075051 | 60 | 0 | 0.0 | 0.0 | 0.05 | 0.09 | 0.06 | 94 | 1016.5 |
| 20260903074606 | 60 | 0 | 0.0 | 0.0 | 0.05 | 0.08 | 0.05 | 94 | 1016.4 |
| 20260903074052 | 60 | 0 | 0.0 | 0.0 | 0.05 | 0.08 | 0.05 | 94 | 1016.3 |
| 20260903073551 | 60 | 0 | 0.0 | 0.0 | 0.05 | 0.08 | 0.05 | 94 | 1016.2 |
| 20260903073101 | 60 | 0 | 0.0 | 0.0 | 0.05 | 0.08 | 0.05 | 94 | 1016.4 |
| 20260903072551 | 60 | 0 | 0.0 | 0.0 | 0.05 | 0.08 | 0.05 | 94 | 1016.4 |
| 20260903072051 | 60 | 0 | 0.0 | 0.0 | 0.05 | 0.08 | 0.05 | 94 | 1016.4 |
| 20260903071608 | 60 | 0 | 0.0 | 0.0 | 0.05 | 0.08 | 0.05 | 94 | 1016.4 |
| 20260903071050 | 60 | 0 | 0.0 | 0.0 | 0.05 | 0.08 | 0.05 | 94 | 1016.6 |
| 20260903070550 | 60 | 0 | 0.0 | 0.0 | 0.04 | 0.07 | 0.04 | 94 | 1016.5 |
| 20260903070059 | 60 | 0 | 0.0 | 0.0 | 0.02 | 0.05 | 0.02 | 94 | 1016.6 |
| 20260903065549 | 60 | 0 | 0.0 | 0.0 | 0.01 | 0.04 | 0.01 | 94 | 1016.8 |
| 20260903065047 | 60 | 0 | 0.0 | 0.0 | 0.01 | 0.04 | 0.01 | 94 | 1016.5 |
| 20260903064621 | 60 | 0 | 0.0 | 0.0 | 0.00 | 0.03 | 0.00 | 94 | 1016.3 |
| 20260903064050 | 60 | 0 | 0.0 | 0.0 | 0.00 | 0.03 | 0.00 | 93 | 1016.3 |
| 20260903063548 | 60 | 0 | 0.0 | 3.0 | 0.00 | 0.03 | 0.00 | 93 | 1016.5 |
| 20260903063112 | 60 | 0 | 0.0 | 3.0 | 0.00 | 0.03 | 0.00 | 93 | 1016.5 |
| 20260903062551 | 60 | 0 | 0.0 | 3.0 | 0.00 | 0.03 | 0.00 | 93 | 1016.5 |
| 20260903062051 | 60 | 0 | 0.0 | 2.0 | 0.00 | 0.03 | 0.00 | 93 | 1016.6 |
| 20260903061559 | 60 | 0 | 0.0 | 5.0 | 0.00 | 0.03 | 0.00 | 93 | 1016.7 |
| 20260903061051 | 60 | 125 | 0.0 | 5.0 | 0.00 | 0.03 | 0.00 | 93 | 1016.6 |
| 20260903060551 | 60 | 0 | 0.0 | 4.0 | 0.00 | 0.03 | 0.00 | 93 | 1016.8 |
| 20260903060100 | 61 | 0 | 0.0 | 0.0 | 0.00 | 0.03 | 0.00 | 92 | 1017.2 |
| 20260903055551 | 61 | 0 | 0.0 | 0.0 | 0.00 | 0.03 | 0.00 | 92 | 1017.5 |
| 20260903055051 | 61 | 0 | 0.0 | 2.0 | 0.00 | 0.03 | 0.00 | 92 | 1017.5 |
| 20260903054604 | 61 | 0 | 0.0 | 6.0 | 0.00 | 0.03 | 0.00 | 92 | 1017.6 |
| 20260903054048 | 61 | 0 | 0.0 | 6.0 | 0.00 | 0.03 | 0.00 | 91 | 1017.7 |
| 20260903053551 | 61 | 0 | 0.0 | 0.0 | 0.00 | 0.03 | 0.00 | 91 | 1017.6 |
| 20260903053114 | 61 | 0 | 0.0 | 0.0 | 0.00 | 0.03 | 0.00 | 91 | 1017.9 |
| 20260903052548 | 61 | 0 | 0.0 | 2.0 | 0.00 | 0.03 | 0.00 | 91 | 1017.8 |
| 20260903052050 | 61 | 0 | 0.0 | 6.0 | 0.00 | 0.03 | 0.00 | 90 | 1018.0 |
| 20260903051602 | 61 | 0 | 0.0 | 6.0 | 0.00 | 0.03 | 0.00 | 90 | 1017.8 |
| 20260903051052 | 61 | 0 | 0.0 | 6.0 | 0.00 | 0.03 | 0.00 | 90 | 1017.8 |
| 20260903050551 | 61 | 0 | 0.0 | 6.0 | 0.00 | 0.03 | 0.00 | 89 | 1017.8 |
| 20260903050107 | 61 | 158 | 0.0 | 6.0 | 0.00 | 0.03 | 0.00 | 89 | 1017.8 |
| 20260903045553 | 61 | 0 | 0.0 | 6.0 | 0.00 | 0.03 | 0.00 | 88 | 1018.0 |
| 20260903045053 | 61 | 0 | 0.0 | 6.0 | 0.00 | 0.03 | 0.00 | 88 | 1018.1 |
| 20260903044601 | 61 | 130 | 0.0 | 1.0 | 0.00 | 0.03 | 0.00 | 87 | 1017.9 |
| 20260903044052 | 61 | 0 | 0.0 | 5.0 | 0.00 | 0.03 | 0.00 | 87 | 1017.9 |
| 20260903043550 | 61 | 0 | 0.0 | 5.0 | 0.00 | 0.03 | 0.00 | 86 | 1017.8 |
| 20260903043109 | 61 | 0 | 0.0 | 0.0 | 0.00 | 0.03 | 0.00 | 86 | 1018.0 |
| 20260903042551 | 61 | 0 | 0.0 | 0.0 | 0.00 | 0.03 | 0.00 | 85 | 1018.0 |
| 20260903042054 | 61 | 0 | 0.0 | 0.0 | 0.00 | 0.03 | 0.00 | 85 | 1018.1 |
| 20260903041556 | 62 | 0 | 0.0 | 1.0 | 0.00 | 0.03 | 0.00 | 84 | 1018.0 |
| 20260903041054 | 62 | 0 | 0.0 | 1.0 | 0.00 | 0.03 | 0.00 | 84 | 1018.0 |
| 20260903040551 | 62 | 0 | 0.0 | 5.0 | 0.00 | 0.03 | 0.00 | 83 | 1018.1 |
| 20260903035551 | 62 | 0 | 0.0 | 3.0 | 0.00 | 0.03 | 0.03 | 83 | 1018.2 |
| 20260903035050 | 62 | 0 | 0.0 | 3.0 | 0.00 | 0.03 | 0.03 | 82 | 1018.3 |
| 20260903034608 | 62 | 0 | 0.0 | 4.0 | 0.00 | 0.03 | 0.03 | 82 | 1018.3 |
| 20260903034050 | 62 | 0 | 0.0 | 4.0 | 0.00 | 0.03 | 0.03 | 82 | 1018.6 |
| 20260903033558 | 62 | 122 | 0.0 | 4.0 | 0.00 | 0.03 | 0.03 | 82 | 1018.7 |
| 20260903033103 | 62 | 0 | 0.0 | 4.0 | 0.00 | 0.03 | 0.03 | 81 | 1018.7 |
| 20260903033057 | 62 | 0 | 0.0 | 4.0 | 0.00 | 0.03 | 0.03 | 81 | 1018.9 |
| 20260903031050 | 62 | 0 | 0.0 | 6.0 | 0.00 | 0.03 | 0.03 | 80 | 1019.1 |
| 20260903030550 | 62 | 0 | 0.0 | 1.0 | 0.00 | 0.03 | 0.03 | 80 | 1019.2 |
| 20260903030134 | 62 | 0 | 0.0 | 0.0 | 0.00 | 0.03 | 0.03 | 79 | 1019.3 |
| 20260903025554 | 62 | 0 | 0.0 | 0.0 | 0.00 | 0.03 | 0.03 | 79 | 1019.4 |
| 20260903025050 | 63 | 0 | 0.0 | 0.0 | 0.00 | 0.03 | 0.03 | 79 | 1019.3 |
| 20260903024624 | 63 | 0 | 0.0 | 0.0 | 0.00 | 0.03 | 0.03 | 79 | 1019.6 |
| 20260903024051 | 63 | 0 | 0.0 | 0.0 | 0.00 | 0.03 | 0.03 | 78 | 1019.4 |
| 20260903023602 | 63 | 0 | 0.0 | 0.0 | 0.00 | 0.03 | 0.03 | 78 | 1019.2 |
| 20260903023101 | 63 | 0 | 0.0 | 0.0 | 0.00 | 0.03 | 0.03 | 78 | 1019.4 |
| 20260903022551 | 63 | 0 | 0.0 | 0.0 | 0.00 | 0.03 | 0.03 | 77 | 1019.6 |
| 20260903022054 | 63 | 0 | 0.0 | 0.0 | 0.00 | 0.03 | 0.03 | 77 | 1019.6 |
| 20260903021556 | 63 | 0 | 0.0 | 0.0 | 0.00 | 0.03 | 0.03 | 77 | 1019.4 |
| 20260903021051 | 63 | 0 | 0.0 | 0.0 | 0.00 | 0.03 | 0.03 | 76 | 1019.6 |
| 20260903020647 | 63 | 0 | 0.0 | 0.0 | 0.00 | 0.03 | 0.03 | 76 | 1019.5 |
| 20260903020105 | 63 | 0 | 0.0 | 0.0 | 0.00 | 0.03 | 0.03 | 76 | 1019.6 |
| 20260903015618 | 63 | 0 | 0.0 | 0.0 | 0.00 | 0.03 | 0.03 | 75 | 1019.5 |
| 20260903015249 | 63 | 0 | 0.0 | 0.0 | 0.00 | 0.03 | 0.03 | 75 | 1019.3 |
| 20260903014605 | 63 | 0 | 0.0 | 0.0 | 0.00 | 0.03 | 0.03 | 74 | 1019.4 |
| 20260903014051 | 63 | 0 | 0.0 | 0.0 | 0.00 | 0.03 | 0.03 | 74 | 1019.5 |
| 20260903013550 | 63 | 0 | 0.0 | 5.0 | 0.00 | 0.03 | 0.03 | 74 | 1019.3 |
| 20260903013102 | 63 | 0 | 0.0 | 5.0 | 0.00 | 0.03 | 0.03 | 73 | 1019.4 |
| 20260903012549 | 63 | 0 | 0.0 | 5.0 | 0.00 | 0.03 | 0.03 | 72 | 1019.5 |
| 20260903012050 | 63 | 0 | 0.0 | 3.0 | 0.00 | 0.03 | 0.03 | 72 | 1019.3 |
| 20260903011609 | 63 | 0 | 0.0 | 0.0 | 0.00 | 0.03 | 0.03 | 72 | 1019.3 |
| 20260903011050 | 63 | 0 | 0.0 | 2.0 | 0.00 | 0.03 | 0.03 | 72 | 1019.3 |
| 20260903010554 | 63 | 0 | 0.0 | 2.0 | 0.00 | 0.03 | 0.03 | 72 | 1019.4 |
| 20260903010146 | 63 | 0 | 0.0 | 3.0 | 0.00 | 0.03 | 0.03 | 72 | 1019.4 |
| 20260903005550 | 64 | 0 | 0.0 | 7.0 | 0.00 | 0.03 | 0.03 | 71 | 1019.5 |
| 20260903005053 | 64 | 0 | 0.0 | 7.0 | 0.00 | 0.03 | 0.03 | 71 | 1019.2 |
| 20260903004600 | 64 | 0 | 0.0 | 4.0 | 0.00 | 0.03 | 0.03 | 72 | 1019.3 |
| 20260903004054 | 64 | 0 | 0.0 | 1.0 | 0.00 | 0.03 | 0.03 | 72 | 1019.4 |
| 20260903003552 | 64 | 0 | 0.0 | 0.0 | 0.00 | 0.03 | 0.03 | 72 | 1019.4 |
| 20260903003128 | 64 | 0 | 0.0 | 0.0 | 0.00 | 0.03 | 0.03 | 72 | 1019.2 |
| 20260903002745 | 64 | 0 | 0.0 | 0.0 | 0.00 | 0.03 | 0.03 | 73 | 1019.2 |
| 20260903000627 | 64 | 0 | 0.0 | 5.0 | 0.00 | 0.03 | 0.03 | 73 | 1018.8 |
| 20260903000104 | 64 | 0 | 0.0 | 9.0 | 0.00 | 0.03 | 0.03 | 73 | 1018.9 |
| 20260902235557 | 64 | 0 | 1.0 | 9.0 | 0.00 | 0.03 | 0.03 | 74 | 1018.9 |
| 20260902235122 | 63 | 0 | 0.0 | 5.0 | 0.00 | 0.03 | 0.03 | 75 | 1018.8 |
| 20260902234559 | 63 | 0 | 0.0 | 4.0 | 0.00 | 0.03 | 0.03 | 76 | 1018.9 |
| 20260902234052 | 63 | 0 | 0.0 | 2.0 | 0.00 | 0.03 | 0.03 | 76 | 1018.9 |
| 20260902233650 | 63 | 0 | 0.0 | 2.0 | 0.00 | 0.03 | 0.03 | 76 | 1019.1 |
| 20260902233102 | 63 | 0 | 0.0 | 4.0 | 0.00 | 0.03 | 0.03 | 77 | 1019.3 |
| 20260902232552 | 63 | 0 | 0.0 | 4.0 | 0.00 | 0.03 | 0.03 | 77 | 1019.6 |
| 20260902232052 | 64 | 0 | 0.0 | 0.0 | 0.00 | 0.03 | 0.03 | 78 | 1019.8 |
| 20260902231606 | 64 | 0 | 0.0 | 0.0 | 0.00 | 0.03 | 0.03 | 78 | 1019.8 |
| 20260902231050 | 64 | 0 | 0.0 | 0.0 | 0.00 | 0.03 | 0.03 | 80 | 1020.0 |
| 20260902230551 | 64 | 0 | 0.0 | 0.0 | 0.00 | 0.03 | 0.03 | 80 | 1019.9 |
| 20260902230107 | 64 | 0 | 0.0 | 0.0 | 0.00 | 0.03 | 0.03 | 79 | 1020.2 |
| 20260902225552 | 64 | 0 | 0.0 | 0.0 | 0.00 | 0.03 | 0.03 | 80 | 1020.3 |
| 20260902225052 | 64 | 0 | 0.0 | 0.0 | 0.00 | 0.03 | 0.03 | 80 | 1020.4 |
| 20260902224559 | 64 | 0 | 0.0 | 0.0 | 0.00 | 0.03 | 0.03 | 80 | 1020.6 |
| 20260902224052 | 65 | 0 | 0.0 | 0.0 | 0.00 | 0.03 | 0.03 | 79 | 1020.5 |
| 20260902223552 | 65 | 0 | 0.0 | 2.0 | 0.00 | 0.03 | 0.03 | 79 | 1020.6 |
| 20260902223101 | 65 | 0 | 0.0 | 6.0 | 0.00 | 0.03 | 0.03 | 78 | 1020.6 |
| 20260902222552 | 65 | 0 | 0.0 | 6.0 | 0.00 | 0.03 | 0.03 | 76 | 1020.8 |
| 20260902222054 | 65 | 0 | 0.0 | 6.0 | 0.00 | 0.03 | 0.03 | 76 | 1020.8 |
| 20260902221608 | 65 | 0 | 0.0 | 0.0 | 0.00 | 0.03 | 0.03 | 79 | 1020.8 |
| 20260902221051 | 65 | 0 | 0.0 | 0.0 | 0.00 | 0.03 | 0.03 | 78 | 1020.5 |
| 20260902220552 | 65 | 0 | 0.0 | 0.0 | 0.00 | 0.03 | 0.03 | 81 | 1020.4 |
| 20260902215548 | 66 | 0 | 0.0 | 0.0 | 0.00 | 0.03 | 0.03 | 79 | 1020.7 |
| 20260902215052 | 66 | 0 | 0.0 | 0.0 | 0.00 | 0.03 | 0.03 | 79 | 1020.8 |
| 20260902214606 | 66 | 0 | 0.0 | 0.0 | 0.00 | 0.03 | 0.03 | 78 | 1020.8 |
| 20260902214052 | 66 | 0 | 0.0 | 0.0 | 0.00 | 0.03 | 0.03 | 78 | 1020.7 |
| 20260902213555 | 66 | 0 | 0.0 | 3.0 | 0.00 | 0.03 | 0.03 | 78 | 1020.7 |
| 20260902213059 | 66 | 0 | 0.0 | 3.0 | 0.00 | 0.03 | 0.03 | 78 | 1020.6 |
| 20260902212551 | 66 | 0 | 0.0 | 0.0 | 0.00 | 0.03 | 0.03 | 79 | 1020.7 |
| 20260902212052 | 66 | 0 | 0.0 | 1.0 | 0.01 | 0.03 | 0.03 | 79 | 1020.7 |
| 20260902211615 | 66 | 0 | 0.0 | 1.0 | 0.01 | 0.03 | 0.03 | 78 | 1020.9 |
| 20260902211052 | 66 | 0 | 0.0 | 1.0 | 0.01 | 0.03 | 0.03 | 78 | 1020.9 |
| 20260902210554 | 67 | 0 | 0.0 | 0.0 | 0.01 | 0.03 | 0.03 | 77 | 1021.0 |
| 20260902210119 | 67 | 0 | 0.0 | 0.0 | 0.01 | 0.03 | 0.03 | 77 | 1021.0 |
| 20260902205551 | 67 | 0 | 0.0 | 2.0 | 0.01 | 0.03 | 0.03 | 76 | 1020.9 |
| 20260902205052 | 67 | 0 | 0.0 | 2.0 | 0.01 | 0.03 | 0.03 | 77 | 1020.8 |
| 20260902204602 | 67 | 0 | 0.0 | 3.0 | 0.01 | 0.03 | 0.03 | 76 | 1020.9 |
| 20260902204051 | 67 | 0 | 0.0 | 3.0 | 0.01 | 0.03 | 0.03 | 76 | 1021.0 |
| 20260902203552 | 67 | 0 | 0.0 | 0.0 | 0.01 | 0.03 | 0.03 | 77 | 1020.8 |
| 20260902203059 | 67 | 0 | 0.0 | 0.0 | 0.01 | 0.03 | 0.03 | 75 | 1020.7 |
| 20260902202551 | 67 | 0 | 0.0 | 0.0 | 0.01 | 0.03 | 0.03 | 75 | 1020.6 |
| 20260902202052 | 67 | 0 | 0.0 | 1.0 | 0.00 | 0.02 | 0.02 | 76 | 1020.9 |
| 20260902201612 | 67 | 0 | 0.0 | 8.0 | 0.00 | 0.02 | 0.02 | 76 | 1020.8 |
| 20260902201052 | 67 | 0 | 0.0 | 8.0 | 0.00 | 0.02 | 0.02 | 75 | 1021.0 |
| 20260902200555 | 67 | 121 | 1.0 | 8.0 | 0.00 | 0.02 | 0.02 | 75 | 1020.9 |
| 20260902200104 | 67 | 0 | 0.0 | 5.0 | 0.00 | 0.02 | 0.02 | 75 | 1021.0 |
| 20260902195552 | 67 | 0 | 0.0 | 0.0 | 0.00 | 0.02 | 0.02 | 76 | 1021.0 |
| 20260902195152 | 67 | 0 | 0.0 | 1.0 | 0.00 | 0.02 | 0.02 | 76 | 1021.2 |
| 20260902195058 | 67 | 0 | 0.0 | 1.0 | 0.00 | 0.02 | 0.02 | 76 | 1021.2 |
| 20260902194556 | 67 | 0 | 0.0 | 1.0 | 0.00 | 0.02 | 0.02 | 75 | 1021.1 |
| 20260902194051 | 67 | 0 | 0.0 | 0.0 | 0.00 | 0.02 | 0.02 | 76 | 1020.8 |
| 20260902193552 | 67 | 0 | 0.0 | 2.0 | 0.00 | 0.02 | 0.02 | 76 | 1021.0 |
| 20260902193100 | 67 | 0 | 0.0 | 4.0 | 0.00 | 0.02 | 0.02 | 76 | 1021.1 |
| 20260902192551 | 67 | 0 | 0.0 | 4.0 | 0.00 | 0.02 | 0.02 | 77 | 1021.3 |
| 20260902192052 | 67 | 0 | 0.0 | 0.0 | 0.00 | 0.02 | 0.02 | 76 | 1021.5 |
| 20260902191603 | 67 | 0 | 0.0 | 0.0 | 0.00 | 0.02 | 0.02 | 77 | 1021.4 |
| 20260902191053 | 67 | 0 | 0.0 | 3.0 | 0.00 | 0.02 | 0.02 | 78 | 1021.5 |
| 20260902190552 | 67 | 0 | 0.0 | 3.0 | 0.00 | 0.02 | 0.02 | 77 | 1021.5 |
| 20260902190057 | 67 | 0 | 0.0 | 4.0 | 0.00 | 0.02 | 0.02 | 77 | 1021.7 |
| 20260902185552 | 67 | 0 | 0.0 | 4.0 | 0.00 | 0.02 | 0.02 | 77 | 1021.7 |
| 20260902185051 | 67 | 0 | 0.0 | 0.0 | 0.00 | 0.02 | 0.02 | 77 | 1021.6 |
| 20260902184557 | 67 | 0 | 0.0 | 0.0 | 0.00 | 0.02 | 0.02 | 77 | 1021.7 |
| 20260902184451 | 67 | 0 | 0.0 | 0.0 | 0.00 | 0.02 | 0.02 | 76 | 1021.7 |
| 20260902182551 | 67 | 0 | 0.0 | 3.0 | 0.00 | 0.02 | 0.02 | 77 | 1021.6 |
| 20260902182054 | 67 | 0 | 0.0 | 3.0 | 0.00 | 0.02 | 0.02 | 77 | 1021.7 |
| 20260902181606 | 67 | 0 | 0.0 | 3.0 | 0.00 | 0.02 | 0.02 | 76 | 1021.8 |
| 20260902181131 | 67 | 0 | 0.0 | 1.0 | 0.00 | 0.02 | 0.02 | 76 | 1021.6 |
| 20260902180552 | 67 | 0 | 0.0 | 1.0 | 0.00 | 0.02 | 0.02 | 77 | 1021.6 |
| 20260902180118 | 67 | 0 | 0.0 | 3.0 | 0.00 | 0.02 | 0.02 | 77 | 1021.5 |
| 20260902175644 | 66 | 0 | 0.0 | 3.0 | 0.00 | 0.02 | 0.02 | 79 | 1021.4 |
| 20260902175534 | 66 | 0 | 0.0 | 3.0 | 0.00 | 0.02 | 0.02 | 78 | 1021.6 |
| 20260902173442 | 67 | 0 | 0.0 | 3.0 | 0.00 | 0.02 | 0.02 | 79 | 1021.8 |
| 20260902171051 | 67 | 0 | 0.0 | 4.0 | 0.00 | 0.02 | 0.02 | 79 | 1022.0 |
| 20260902170551 | 67 | 0 | 0.0 | 0.0 | 0.00 | 0.02 | 0.02 | 78 | 1022.0 |
| 20260902170111 | 66 | 0 | 0.0 | 7.0 | 0.00 | 0.02 | 0.02 | 80 | 1022.1 |
| 20260902165551 | 66 | 0 | 0.0 | 7.0 | 0.00 | 0.02 | 0.02 | 79 | 1022.2 |
| 20260902165051 | 66 | 0 | 0.0 | 6.0 | 0.00 | 0.02 | 0.02 | 80 | 1022.0 |
| 20260902164558 | 66 | 0 | 0.0 | 4.0 | 0.00 | 0.02 | 0.02 | 81 | 1022.0 |
| 20260902164052 | 66 | 0 | 0.0 | 0.0 | 0.00 | 0.02 | 0.02 | 82 | 1022.2 |
| 20260902163818 | 66 | 0 | 0.0 | 0.0 | 0.00 | 0.02 | 0.02 | 83 | 1022.3 |
| 20260902163244 | 66 | 0 | 0.0 | 5.0 | 0.00 | 0.02 | 0.02 | 83 | 1022.2 |
| 20260902162551 | 65 | 0 | 0.0 | 5.0 | 0.00 | 0.02 | 0.02 | 83 | 1022.3 |
| 20260902162054 | 65 | 0 | 0.0 | 4.0 | 0.00 | 0.02 | 0.02 | 84 | 1022.2 |
| 20260902162016 | 65 | 0 | 0.0 | 4.0 | 0.00 | 0.02 | 0.02 | 83 | 1022.3 |
| 20260902155551 | 65 | 0 | 0.0 | 3.0 | 0.00 | 0.02 | 0.02 | 86 | 1022.5 |
| 20260902155052 | 65 | 0 | 0.0 | 1.0 | 0.00 | 0.02 | 0.02 | 88 | 1022.3 |
| 20260902154601 | 65 | 0 | 0.0 | 1.0 | 0.00 | 0.02 | 0.02 | 89 | 1022.6 |
| 20260902154051 | 65 | 0 | 0.0 | 0.0 | 0.00 | 0.02 | 0.02 | 89 | 1022.6 |
| 20260902153552 | 65 | 0 | 0.0 | 0.0 | 0.00 | 0.02 | 0.02 | 90 | 1022.6 |
| 20260902153057 | 65 | 0 | 0.0 | 0.0 | 0.00 | 0.02 | 0.02 | 91 | 1022.7 |
| 20260902152551 | 64 | 0 | 0.0 | 1.0 | 0.00 | 0.02 | 0.02 | 92 | 1022.7 |
| 20260902152051 | 64 | 0 | 0.0 | 2.0 | 0.00 | 0.02 | 0.02 | 92 | 1022.8 |
| 20260902151559 | 64 | 0 | 0.0 | 2.0 | 0.00 | 0.02 | 0.02 | 93 | 1022.6 |
| 20260902151050 | 64 | 132 | 0.0 | 2.0 | 0.00 | 0.02 | 0.02 | 94 | 1022.7 |
| 20260902150550 | 63 | 0 | 0.0 | 1.0 | 0.00 | 0.02 | 0.02 | 94 | 1022.6 |
| 20260902145551 | 63 | 0 | 0.0 | 0.0 | 0.00 | 0.02 | 0.02 | 94 | 1022.8 |
| 20260902145051 | 63 | 0 | 0.0 | 0.0 | 0.00 | 0.02 | 0.02 | 94 | 1022.6 |
| 20260902144610 | 63 | 0 | 0.0 | 0.0 | 0.00 | 0.02 | 0.02 | 95 | 1022.7 |
| 20260902144052 | 62 | 0 | 0.0 | 0.0 | 0.00 | 0.02 | 0.02 | 95 | 1022.8 |
| 20260902143551 | 62 | 0 | 0.0 | 0.0 | 0.00 | 0.02 | 0.02 | 95 | 1022.7 |
| 20260902143059 | 62 | 0 | 0.0 | 0.0 | 0.00 | 0.02 | 0.02 | 95 | 1022.8 |
| 20260902142552 | 62 | 0 | 0.0 | 0.0 | 0.00 | 0.02 | 0.02 | 95 | 1022.6 |
| 20260902142054 | 62 | 0 | 0.0 | 0.0 | 0.00 | 0.02 | 0.02 | 95 | 1022.6 |
| 20260902141559 | 62 | 0 | 0.0 | 1.0 | 0.00 | 0.02 | 0.02 | 95 | 1022.4 |
| 20260902141051 | 62 | 0 | 0.0 | 1.0 | 0.00 | 0.02 | 0.02 | 95 | 1022.6 |
| 20260902140551 | 62 | 0 | 0.0 | 1.0 | 0.00 | 0.02 | 0.02 | 95 | 1022.3 |
| 20260902140359 | 62 | 0 | 0.0 | 1.0 | 0.00 | 0.02 | 0.02 | 96 | 1022.2 |
| 20260902134051 | 62 | 166 | 0.0 | 0.0 | 0.00 | 0.02 | 0.02 | 96 | 1021.8 |
| 20260902133552 | 61 | 0 | 0.0 | 3.0 | 0.00 | 0.02 | 0.02 | 96 | 1022.0 |
| 20260902133058 | 61 | 0 | 0.0 | 3.0 | 0.00 | 0.02 | 0.02 | 96 | 1022.0 |
| 20260902132933 | 61 | 0 | 0.0 | 3.0 | 0.00 | 0.02 | 0.02 | 96 | 1022.0 |
| 20260902130551 | 60 | 0 | 0.0 | 0.0 | 0.00 | 0.02 | 0.02 | 95 | 1022.2 |
| 20260902130104 | 60 | 0 | 0.0 | 0.0 | 0.00 | 0.02 | 0.02 | 95 | 1022.3 |
| 20260902125551 | 60 | 0 | 0.0 | 0.0 | 0.00 | 0.02 | 0.02 | 95 | 1022.1 |
| 20260902125051 | 60 | 0 | 0.0 | 0.0 | 0.00 | 0.02 | 0.02 | 95 | 1022.2 |
| 20260902124600 | 60 | 0 | 0.0 | 0.0 | 0.00 | 0.02 | 0.02 | 95 | 1022.2 |
| 20260902124052 | 60 | 0 | 0.0 | 0.0 | 0.00 | 0.02 | 0.02 | 95 | 1022.1 |
| 20260902123551 | 60 | 0 | 0.0 | 0.0 | 0.00 | 0.02 | 0.02 | 95 | 1022.3 |
| 20260902123055 | 60 | 0 | 0.0 | 0.0 | 0.00 | 0.02 | 0.02 | 95 | 1022.3 |
| 20260902122550 | 60 | 0 | 0.0 | 0.0 | 0.00 | 0.02 | 0.02 | 95 | 1022.2 |
| 20260902122051 | 60 | 0 | 0.0 | 0.0 | 0.00 | 0.02 | 0.02 | 95 | 1022.2 |
| 20260902121600 | 60 | 0 | 0.0 | 0.0 | 0.00 | 0.02 | 0.02 | 95 | 1022.2 |
| 20260902121049 | 60 | 0 | 0.0 | 1.0 | 0.00 | 0.02 | 0.02 | 95 | 1022.3 |
| 20260902120551 | 60 | 0 | 0.0 | 1.0 | 0.00 | 0.02 | 0.02 | 95 | 1022.2 |
| 20260902115551 | 60 | 0 | 0.0 | 0.0 | 0.00 | 0.02 | 0.02 | 95 | 1022.1 |
| 20260902115048 | 60 | 0 | 0.0 | 0.0 | 0.00 | 0.02 | 0.02 | 95 | 1022.2 |
| 20260902114559 | 60 | 0 | 0.0 | 0.0 | 0.00 | 0.02 | 0.02 | 95 | 1022.2 |
| 20260902114050 | 60 | 0 | 0.0 | 0.0 | 0.00 | 0.02 | 0.02 | 95 | 1022.1 |
| 20260902113550 | 60 | 0 | 0.0 | 0.0 | 0.00 | 0.02 | 0.02 | 95 | 1022.2 |
| 20260902113058 | 60 | 0 | 0.0 | 0.0 | 0.00 | 0.02 | 0.02 | 95 | 1022.3 |
| 20260902112551 | 60 | 0 | 0.0 | 0.0 | 0.00 | 0.02 | 0.02 | 95 | 1022.2 |
| 20260902112051 | 60 | 0 | 0.0 | 0.0 | 0.00 | 0.02 | 0.02 | 95 | 1022.2 |
| 20260902111559 | 60 | 0 | 0.0 | 0.0 | 0.00 | 0.02 | 0.02 | 95 | 1022.0 |
| 20260902111048 | 60 | 0 | 0.0 | 0.0 | 0.00 | 0.02 | 0.02 | 95 | 1022.0 |
| 20260902110552 | 59 | 0 | 0.0 | 0.0 | 0.00 | 0.02 | 0.02 | 95 | 1022.0 |
| 20260902110104 | 59 | 0 | 0.0 | 0.0 | 0.00 | 0.02 | 0.02 | 95 | 1022.0 |
| 20260902105550 | 59 | 0 | 0.0 | 0.0 | 0.00 | 0.02 | 0.02 | 95 | 1021.9 |